User: anonymous   Login
Location: Newark
(49.1000°N, 0.4667°W)
Time: 15:14:54
(UTC+00:00)
Language:

XW-2A - Orbit

View from above orbital plane
View from above orbital plane
View from above satellite
View from above satellite

Ground track
Ground track

The orbit data is extracted from the following two-line orbital elements,

1 40903U 15049E   21163.44158659  .00003363  00000-0  72295-4 0  9994
2 40903  97.2366 217.9384 0013250  40.6858  15.3840 15.45291561322026
Epoch (UTC): 12 June 2021 10:35:53
Eccentricity: 0.0013250
inclination: 97.2366°
perigee height: 421 km
apogee height: 439 km
right ascension of ascending node: 217.9384°
argument of perigee: 40.6858°
revolutions per day: 15.45291561
mean anomaly at epoch: 15.3840°
orbit number at epoch: 32202

The dashed part of the orbit path shows where the satellite is in the earth's shadow,  

DLR